STARLINK-3761, 52262

Orbit data source: Space-Track

STARLINK-3761, 52262 is a payload satellite owned by SpaceX/Seattle (US) in LEO that was launched on Thu, 21 Apr 2022 UTC via an FALCON 9 launch vehicle from the Air Force Eastern Test Range (AFETR). Payload-class satellites include a variety of spacecraft equipped with specific instruments for various scientific and technological missions. These include communications satellites like Starlink; space stations such as the ISS; scientific satellites like the Hubble; Earth observation satellites from companies like Planet Labs, Umbra, and HawkEye 360; GPS; miniature CubeSats for education and research; and military/defense satellites.

Loading next visibility...
Identifier
52262, 2022-041B
Orbit
LEO
Country
Flag of USUS
Related business
Manufacturer
SpaceX/Seattle
Mission
Operational Commercial Communications
Bus & Motor
STARLINK, Unknown motor
Mass
297 kg wet, ~275 kg dry
Launch date (UTC)
2022-04-21 (4 years ago)
Launch vehicle
FALCON 9
Launch site
Air Force Eastern Test Range (AFETR)
Object type
Payload
Rocket body
Debris
Shape & HBR
Box + 1 Pan, 10.1 m
Radar Cross Section
11.087 m², Large (>1 m²)

Expand to show TLE details & history
Last TLE update: 1 day ago

TLE from 1 day ago
0 STARLINK-3761
1 52262U 22041B   26129.45407061  .00001114  00000-0  88053-4 0  9998
2 52262  53.2160 196.2903 0001087  75.8039 284.3073 15.08842036223533
Epoch: 2026-05-09T10:53Z
TLE epoch observation values (Epoch: 2026-05-09T10:53:51.700Z)
Latitude
-0.0001°
Longitude
165.55353°
Altitude
540.449 km
Speed
7.593 km/s
True Right ascension
13h 05m 09s
True Declination
0° 00' 00"
Sunlit
Object was in full shadow at epoch
Visualization orbit readout
Latitude
Unknown
Longitude
Unknown
Altitude
Unknown
Speed
Unknown
Apparent Right ascension
Unknown
Apparent Declination
Unknown
Sunlit
N/A
Visualization observer readout
Local Sidereal Time
21:22:05
Azimuth
Unknown
Elevation
Unknown
Doppler factor
Unknown
Orbital elements
Apogee altitude
540.734 km
Perigee altitude
539.23 km
Semi-major axis
6,918.119 km
Eccentricity
0.00011
Inclination
53.216°
RAAN
196.2903°
Arg. of periapsis
75.8039°
True anomaly
284.29523°
Mean anomaly
284.3073°
Eccentric anomaly
284.30126°
Mean motion
3.77191 °/min
Orbital period
95.44 mins
BSTAR
0.000088053
Loading maneuver chart data...
Computing Atmospheric mass density...
Loading historical data...
Loading historical data...
Loading historical data...
Loading historical data...
Loading historical data...
Loading historical data...
Loading historical data...

Documentation

Showing up to 5 results
|